Location: Muenchen
(48.1800°N, 11.5800°E)
Time: 10:54:06
(UTC+01:00)

ISS - Visible Passes

Search period start: 08 December 2016 00:00
Search period end: 18 December 2016 00:00
Orbit: 401 x 410 km, 51.6° (Epoch: 08 December)

Date Brightness Start Highest point End Pass type
(mag) Time Alt. Az. Time Alt. Az. Time Alt. Az.
08 Dec -2.8 18:03:20 10° W 18:06:34 49° N 18:07:15 40° NNE visible
09 Dec -3.1 17:11:16 10° W 17:14:32 60° NNW 17:17:21 13° ENE visible
09 Dec -1.5 18:48:09 10° WNW 18:50:02 28° NW 18:50:02 28° NW visible
10 Dec -2.7 17:56:06 10° WNW 17:59:18 43° N 18:00:08 35° NE visible
10 Dec 0.2 19:32:46 10° WNW 19:32:49 10° WNW 19:32:49 10° WNW visible
11 Dec -2.8 17:04:00 10° W 17:07:13 46° N 17:10:16 11° ENE visible
11 Dec -1.9 18:40:47 10° WNW 18:42:56 34° NW 18:42:56 34° NW visible
12 Dec -2.9 17:48:46 10° WNW 17:51:58 46° N 17:53:06 32° ENE visible
12 Dec -0.1 19:25:19 10° WNW 19:25:46 13° WNW 19:25:46 13° WNW visible
13 Dec -2.7 16:56:41 10° WNW 16:59:52 43° N 17:03:03 10° ENE visible
13 Dec -2.7 18:33:18 10° WNW 18:35:59 54° NW 18:35:59 54° NW visible
14 Dec -3.2 17:41:18 10° WNW 17:44:34 59° NNE 17:46:16 25° E visible
14 Dec -0.4 19:17:54 10° WNW 19:18:57 18° W 19:18:57 18° W visible
15 Dec -2.9 18:25:47 10° WNW 18:29:03 59° SSW 18:29:21 56° S visible
16 Dec -3.4 17:33:44 10° WNW 17:37:03 89° SSW 17:39:55 13° ESE visible
16 Dec -0.6 19:10:46 10° W 19:12:37 18° SW 19:12:37 18° SW visible
17 Dec -1.5 18:18:22 10° W 18:21:19 30° SW 18:23:24 16° SSE visible
